This demonstration page uses our WeatherBlox Daily Observations layout. Learn more.

Left ArrowRight Arrow

Hourly Observations for April 11, 2015

Temp ( °F °C ) Dew Point ( °F °C ) Humidity (%) Winds ( mph kmh ) Pressure ( in mb ) Visibility ( mi km ) Precip ( " mm )
12:53 am 00:53 Mostly Clear 50 10 31 -0.6 48 48 NW 17 28 30.14 1021 10 16.0934 0 0
1:53 am 01:53 Clear 48 8.9 33 0.6 56 56 NW 10 17 30.17 1022 10 16.0934 0 0
2:53 am 02:53 Clear 45 7.2 34 1.1 66 66 NNW 7 11 30.17 1022 10 16.0934 0 0
3:53 am 03:53 Clear 42 5.6 35 1.7 76 76 NW 5 7 30.19 1022 10 16.0934 0 0
4:53 am 04:53 Clear 41 5 35 1.7 79 79 NW 6 9 30.21 1023 10 16.0934 0 0
5:53 am 05:53 Clear 36 2.2 34 1.1 93 93 Calm 30.23 1024 10 16.0934 0 0
6:53 am 06:53 Clear 37 2.8 34 1.1 89 89 Calm 30.25 1025 10 16.0934 0 0
7:53 am 07:53 Sunny 37 2.8 35 1.7 93 93 Calm 30.28 1026 10 16.0934 0 0
8:53 am 08:53 Sunny 45 7.2 38 3.3 77 77 Calm 30.29 1026 10 16.0934 0 0
9:53 am 09:53 Sunny 48 8.9 37 2.8 66 66 N 5 7 30.31 1027 10 16.0934 0 0
10:53 am 10:53 Sunny 51 10.6 37 2.8 59 59 VRB 3 6 30.32 1027 10 16.0934 0 0
11:53 am 11:53 Sunny 53 11.7 35 1.7 51 51 VRB 5 7 30.32 1027 10 16.0934 0 0
12:53 pm 12:53 Sunny 56 13.3 35 1.7 46 46 S 3 6 30.31 1026 10 16.0934 0 0
1:53 pm 13:53 Sunny 57 13.9 34 1.1 42 42 undefined N/A 30.29 1026 10 16.0934 0 0
2:53 pm 14:53 Sunny 59 15 32 0 36 36 N 7 11 30.28 1025 10 16.0934 0 0
3:53 pm 15:53 Sunny 60 15.6 36 2.2 41 41 NNW 8 13 30.25 1025 10 16.0934 0 0
4:53 pm 16:53 Sunny 61 16.1 32 0 34 34 NE 3 6 30.25 1024 10 16.0934 0 0
5:53 pm 17:53 Sunny 61 16.1 34 1.1 36 36 E 7 11 30.24 1024 10 16.0934 0 0
6:53 pm 18:53 Sunny 61 16.1 31 -0.6 32 32 Calm 30.24 1024 10 16.0934 0 0
7:53 pm 19:53 Sunny 59 15 33 0.6 38 38 Calm 30.24 1024 10 16.0934 0 0
8:53 pm 20:53 Clear 50 10 39 3.9 66 66 Calm 30.24 1024 10 16.0934 0 0
9:53 pm 21:53 Clear 48 8.9 39 3.9 71 71 Calm 30.26 1025 10 16.0934 0 0
10:53 pm 22:53 Clear 44 6.7 38 3.3 79 79 Calm 30.25 1024 10 16.0934 0 0
11:53 pm 23:53 Clear 45 7.2 39 3.9 80 80 Calm 30.25 1024 10 16.0934 0 0

Powered by AerisWeather